SP6DW-13 Weather Reports


time (UTC)temp
F
wind
direction
speed
knots
gust
knots
rain 1hr
in
rain 24hr
in
rain mn
in
humidity
%
barometer
mb
20260507060016 50 75 0.0 1.7 0.01 0.50 0.50 95 1011.1
20260507055106 50 73 0.0 0.9 0.01 0.50 0.50 95 1011.1
20260507054030 50 75 0.0 0.9 0.01 0.50 0.50 94 1010.9
20260507053040 50 100 0.0 0.9 0.01 0.50 0.50 94 1010.9
20260507052036 50 121 0.0 1.7 0.02 0.50 0.50 94 1010.7
20260507051036 50 105 0.0 0.9 0.05 0.50 0.50 94 1010.6
20260507050016 50 119 0.0 0.9 0.08 0.49 0.49 95 1010.5
20260507045015 50 109 0.0 0.9 0.11 0.49 0.49 95 1010.5
20260507044021 50 80 0.0 1.7 0.12 0.49 0.49 95 1010.4
20260507043042 49 107 0.0 0.9 0.12 0.49 0.49 95 1010.3
20260507042055 50 82 0.0 0.9 0.12 0.48 0.48 95 1010.3
20260507041047 50 84 0.0 0.9 0.09 0.45 0.45 95 1010.1
20260507040015 50 116 0.0 1.7 0.05 0.41 0.41 95 1010.1
20260507035018 50 72 0.0 1.7 0.02 0.38 0.38 95 1010.1
20260507034015 50 70 0.0 0.9 0.01 0.37 0.37 95 1010.2
20260507033015 50 79 0.9 2.6 0.01 0.37 0.37 94 1010.0
20260507032016 51 91 0.0 1.7 0.00 0.36 0.36 94 1009.9
20260507031036 51 114 0.0 1.7 0.00 0.36 0.36 94 1009.7
20260507030016 51 79 0.0 1.7 0.00 0.36 0.36 94 1009.7
20260507025016 51 69 0.9 1.7 0.01 0.36 0.36 94 1009.7
20260507024016 52 102 0.0 0.9 0.01 0.36 0.36 95 1009.8
20260507023025 52 76 0.0 1.7 0.02 0.36 0.36 95 1009.7
20260507022021 52 61 0.9 2.6 0.03 0.36 0.36 95 1009.7
20260507021016 52 57 0.9 1.7 0.05 0.36 0.36 95 1009.4
20260507020028 52 71 0.9 1.7 0.08 0.36 0.36 95 1009.4
20260507015016 53 59 0.9 1.7 0.13 0.35 0.35 95 1009.3
20260507014016 53 0.0 0.0 0.15 0.35 0.35 95 1009.3
20260507013048 53 80 0.0 0.9 0.20 0.34 0.34 95 1009.1
20260507012031 53 111 0.0 0.9 0.24 0.33 0.33 95 1008.9
20260507011021 54 110 0.0 0.9 0.28 0.31 0.31 94 1008.9
20260507010015 54 107 0.0 0.9 0.25 0.28 0.28 94 1008.9
20260507005028 54 0.0 0.0 0.19 0.22 0.22 94 1008.8
20260507004016 54 0.0 0.0 0.17 0.21 0.20 94 1008.7
20260507003015 54 86 0.0 0.9 0.12 0.15 0.14 94 1008.5
20260507002025 55 73 0.0 1.7 0.07 0.11 0.09 94 1008.5
20260507001016 54 78 0.0 0.9 0.01 0.06 0.03 93 1008.4
20260507000027 55 63 0.9 1.7 0.02 0.09 0.03 92 1008.3
20260506235016 55 0.0 0.0 0.02 0.13 0.03 92 1008.3
20260506234021 55 0.0 0.0 0.03 0.16 0.03 91 1008.2
20260506233019 55 105 0.0 0.9 0.02 0.17 0.02 91 1008.2
20260506232016 56 111 0.0 0.9 0.02 0.17 0.02 91 1008.0
20260506231033 56 112 0.0 0.9 0.02 0.18 0.02 89 1008.0
20260506230015 56 132 0.0 1.7 0.01 0.17 0.01 88 1008.1
20260506225028 57 108 0.0 0.9 0.01 0.17 0.01 87 1008.4
20260506224016 57 111 0.0 0.9 0.00 0.17 0.00 87 1008.5
20260506223015 57 79 0.0 0.9 0.00 0.18 0.00 85 1008.4
20260506222026 57 116 0.0 1.7 0.00 0.22 0.00 85 1008.3
20260506221015 57 77 0.0 1.7 0.00 0.22 0.00 84 1008.1
20260506220015 57 76 0.0 1.7 0.00 0.22 0.00 84 1008.0
20260506215015 57 78 0.0 0.9 0.00 0.22 0.22 85 1007.9
20260506214036 57 77 0.9 3.5 0.00 0.22 0.22 84 1007.7
20260506213056 57 114 0.0 1.7 0.00 0.22 0.22 84 1007.7
20260506212015 57 113 0.9 2.6 0.00 0.22 0.22 84 1007.5
20260506211015 57 121 0.9 2.6 0.00 0.22 0.22 84 1007.4
20260506210016 57 139 1.7 3.5 0.00 0.22 0.22 85 1007.6
20260506205016 58 139 0.9 3.5 0.00 0.22 0.22 87 1007.8
20260506204016 58 127 0.9 2.6 0.00 0.22 0.22 87 1007.6
20260506203022 58 150 1.7 3.5 0.00 0.22 0.22 86 1007.6
20260506202022 58 118 0.9 2.6 0.00 0.22 0.22 85 1007.5
20260506201036 59 152 0.9 2.6 0.00 0.22 0.22 83 1007.8
20260506200016 60 102 0.0 0.9 0.00 0.22 0.22 81 1007.8
20260506195025 60 82 0.9 2.6 0.00 0.22 0.22 79 1007.8
20260506194016 60 71 0.9 3.5 0.00 0.22 0.22 78 1007.8
20260506193016 61 111 0.9 2.6 0.00 0.22 0.22 78 1007.4
20260506192023 61 87 0.9 3.5 0.00 0.22 0.22 77 1007.2
20260506191023 62 72 0.9 5.2 0.00 0.22 0.22 74 1007.0
20260506190016 63 109 0.0 0.9 0.00 0.22 0.22 71 1007.2
20260506185021 63 82 0.0 1.7 0.00 0.22 0.22 71 1007.1
20260506184015 64 95 0.0 1.7 0.00 0.22 0.22 70 1006.9
20260506183022 64 103 0.9 3.5 0.00 0.22 0.22 69 1006.7
20260506182016 64 81 0.9 5.2 0.00 0.22 0.22 68 1006.7
20260506181028 65 95 0.9 3.5 0.00 0.22 0.22 67 1006.6
20260506180016 66 77 0.9 3.5 0.00 0.22 0.22 65 1006.4
20260506175056 66 85 0.9 3.5 0.00 0.22 0.22 63 1006.4
20260506174015 68 72 0.9 2.6 0.00 0.22 0.22 61 1006.3
20260506173015 69 76 0.9 1.7 0.00 0.22 0.22 57 1006.2
20260506172016 69 69 0.9 2.6 0.00 0.22 0.22 57 1006.2
20260506171103 70 69 0.9 2.6 0.00 0.22 0.22 57 1006.4
20260506170037 69 84 0.0 1.7 0.00 0.22 0.22 57 1006.4
20260506165016 71 111 0.0 0.9 0.00 0.22 0.22 49 1006.4
20260506164016 71 33 0.9 6.1 0.00 0.22 0.22 48 1006.4
20260506163016 73 9 0.9 3.5 0.00 0.22 0.22 46 1006.3
20260506162016 71 126 0.9 5.2 0.00 0.22 0.22 48 1006.0
20260506161039 72 72 0.9 2.6 0.00 0.22 0.22 47 1006.3
20260506160016 71 68 0.9 6.1 0.00 0.22 0.22 48 1006.4
20260506155027 73 54 0.9 3.5 0.00 0.22 0.22 46 1006.3
20260506154059 72 52 0.9 3.5 0.00 0.22 0.22 48 1006.5
20260506153016 72 52 0.9 3.5 0.00 0.22 0.22 47 1006.6
20260506152016 71 129 0.9 3.5 0.00 0.22 0.22 46 1006.7
20260506151016 73 12 2.6 6.1 0.00 0.22 0.22 45 1006.7
20260506150015 74 0 1.7 7.0 0.00 0.22 0.22 44 1006.7
20260506145016 74 82 1.7 6.1 0.00 0.22 0.22 44 1006.8
20260506144015 75 143 1.7 6.1 0.00 0.22 0.22 44 1006.9
20260506143022 75 119 0.9 3.5 0.00 0.22 0.22 44 1007.0
20260506142022 74 148 2.6 6.1 0.00 0.22 0.22 45 1007.0
20260506141016 74 131 0.9 3.5 0.00 0.22 0.22 46 1007.1
20260506133016 72 153 2.6 7.0 0.00 0.22 0.22 47 1007.4
20260506131526 73 156 2.6 6.1 0.00 0.22 0.22 47 1007.4
20260506125516 72 166 2.6 6.1 0.00 0.22 0.22 49 1007.4
20260506124516 71 112 1.7 6.1 0.00 0.22 0.22 51 1007.4
20260506123525 71 189 1.7 5.2 0.00 0.22 0.22 52 1007.6
20260506123036 71 152 2.6 7.8 0.00 0.22 0.22 51 1007.6
20260506122036 71 151 2.6 6.1 0.00 0.22 0.22 53 1007.6
20260506121016 69 73 1.7 7.0 0.00 0.22 0.22 54 1007.6
20260506120016 70 99 2.6 7.8 0.00 0.22 0.22 54 1007.6
20260506115016 69 163 2.6 7.0 0.00 0.22 0.22 55 1007.7
20260506114028 68 160 2.6 7.0 0.00 0.22 0.22 58 1007.7
20260506113035 68 44 2.6 7.8 0.00 0.22 0.22 60 1007.8
20260506112016 68 146 1.7 5.2 0.00 0.22 0.22 61 1007.7
20260506111035 66 106 1.7 7.8 0.00 0.22 0.22 61 1007.8
20260506110016 67 24 3.5 11.3 0.00 0.22 0.22 61 1007.9
20260506105023 66 348 4.3 11.3 0.00 0.22 0.22 62 1007.9
20260506104026 65 150 1.7 7.0 0.00 0.22 0.22 64 1007.8
20260506103017 65 115 1.7 7.0 0.00 0.22 0.22 66 1007.8
20260506102016 65 89 0.9 6.1 0.00 0.22 0.22 66 1008.0
20260506101032 64 57 2.6 11.3 0.00 0.22 0.22 68 1008.1
20260506100017 63 158 2.6 7.0 0.00 0.22 0.22 68 1007.8
20260506095020 63 163 2.6 9.6 0.00 0.22 0.22 69 1008.1
20260506094028 63 179 2.6 6.1 0.00 0.22 0.22 68 1007.8
20260506093024 62 163 3.5 8.7 0.00 0.22 0.22 71 1007.9
20260506092028 63 153 1.7 7.8 0.00 0.22 0.22 70 1007.9
20260506091020 61 145 1.7 6.1 0.00 0.22 0.22 73 1007.8
20260506090016 61 145 3.5 8.7 0.00 0.22 0.22 74 1007.9
20260506085015 61 160 2.6 7.8 0.00 0.22 0.22 73 1007.7
20260506084028 60 158 2.6 7.8 0.00 0.22 0.22 75 1007.5
20260506083016 60 161 2.6 7.0 0.00 0.22 0.22 75 1007.5
20260506082016 61 357 3.5 11.3 0.00 0.22 0.22 74 1007.5
20260506081016 61 57 1.7 6.1 0.00 0.22 0.22 74 1007.2
20260506073016 58 155 3.5 7.8 0.00 0.22 0.22 79 1007.2
20260506072015 58 122 1.7 6.1 0.00 0.22 0.22 81 1007.2
20260506071043 58 173 3.5 7.8 0.00 0.22 0.22 81 1007.2
20260506062016 57 148 1.7 6.1 0.00 0.22 0.22 84 1007.5
20260506061019 57 154 0.9 7.8 0.00 0.22 0.22 84 1007.5